Showing default

OPS 9333 (IDSCS 18), 2864

Orbit data source: Space-Track

OPS 9333 (IDSCS 18), 2864 is a payload satellite owned by SAMSO (US) in GEO that was launched on Sat, 01 Jul 1967 UTC via a TITAN IIIC launch vehicle from the Air Force Eastern Test Range (AFETR). Payload-class satellites include a variety of spacecraft equipped with specific instruments for various scientific and technological missions. These include communications satellites like Starlink; space stations such as the ISS; scientific satellites like the Hubble; Earth observation satellites from companies like Planet Labs, Umbra, and HawkEye 360; GPS; miniature CubeSats for education and research; and military/defense satellites.

Not visible in the next 10 days
Identifier
2864, 1967-066C
Orbit
GEO
Country
Flag of USUS
Related business
Manufacturer
Philco-Ford WDL
Mission
Non-operational Defense Communications
Bus & Motor
IDCSP, Unknown motor
Mass
45 kg wet, 45 kg dry
Launch date (UTC)
1967-07-01 (58 years ago)
Launch vehicle
TITAN IIIC
Launch site
Air Force Eastern Test Range (AFETR)
Object type
Payload
Rocket body
Debris
Shape & HBR
Poly, 0.5 m
Radar Cross Section
0.926 m², Medium (>0.1 m² and < 1m²)

Expand to show TLE details & history
Last TLE update: 3 days ago

TLE from 3 days ago
0 OPS 9333 (IDSCS 18)
1 02864U 67066C   25240.00114385 -.00000078  00000-0  00000-0 0  9996
2 02864   2.1117 105.5747 0057226 219.4762 318.4547  1.09786425128326
Epoch: 2025-08-28T00:01Z
TLE epoch observation values (Epoch: 2025-08-28T00:01:38.828Z)
Latitude
0.10547°
Longitude
-53.81479°
Altitude
33,143.504 km
Speed
3.183 km/s
True Right ascension
18h 52m 16s
True Declination
0° 06' 19"
Sunlit
Object was in daylight at epoch
Visualization orbit readout
Latitude
Unknown
Longitude
Unknown
Altitude
Unknown
Speed
Unknown
Apparent Right ascension
Unknown
Apparent Declination
Unknown
Sunlit
N/A
Visualization observer readout
Local Sidereal Time
15:45:10
Azimuth
Unknown
Elevation
Unknown
Doppler factor
Unknown
Orbital elements
Apogee altitude
33,542.121 km
Perigee altitude
33,087.825 km
Semi-major axis
39,693.11 km
Eccentricity
0.00572
Inclination
2.1117°
RAAN
105.5747°
Arg. of periapsis
219.4762°
True anomaly
318.01745°
Mean anomaly
318.4547°
Eccentric anomaly
318.23631°
Mean motion
0.27445 °/min
Orbital period
1,311.69 mins
BSTAR
0
Loading maneuver chart data...
Computing Atmospheric mass density...
Loading historical data...
Loading historical data...
Loading historical data...
Loading historical data...
Loading historical data...
Loading historical data...
Loading historical data...

Documentation

Showing up to 5 results
|